CAPE
3966 3368 3226 3223 3203 3109 2907 2666 2479 2443 2473 2032 2083 2091 1860 1500 1419 1153 753 481 633 698 478 670 529 643 538 471 580 359 422 411 165 125 180 145 124 48 11 12 0 0
4208 3807 3538 3296 3407 3352 3192 2796 2718 2666 2700 2557 2188 2168 2004 1823 1448 1132 1002 790 787 683 712 620 648 673 588 531 500 454 496 360 192 124 112 170 154 96 41 42 82 86
4206 3942 3687 3442 3146 3288 3094 3017 2794 2813 2879 2732 2414 2220 2174 1824 1584 1225 1008 946 871 638 759 706 686 788 752 454 518 430 458 480 283 108 586 412 284 168 300 98 108 146
4546 4220 3795 3586 3370 3171 3454 3134 3168 3206 2693 2624 2456 2169 1990 1978 1853 1366 1226 1054 878 687 587 624 710 796 740 590 726 783 575 732 486 499 363 463 719 525 327 286 207 126
4797 4485 4126 3880 3690 3490 3475 3536 3036 3337 2993 2569 2497 2290 2136 2012 1807 1415 1204 1035 818 698 639 640 752 822 698 620 789 944 767 723 530 564 648 559 978 841 412 247 252 258
4961 4800 4604 4207 3996 3867 3584 3822 3756 3442 3189 2470 2612 2348 2207 2008 1550 1299 1210 945 695 605 583 551 735 754 734 725 849 844 768 640 796 824 665 801 741 509 248 199 216 254
4966 4977 4706 4486 4194 4111 4075 4177 4122 3626 3357 2804 2812 2727 2167 1835 1537 1336 1205 1007 612 697 611 684 812 606 767 836 882 957 1010 955 833 967 849 916 854 549 213 204 306 220
4888 5091 5036 4616 4528 4267 4312 4444 4352 3929 3630 3318 3146 2884 2203 1881 1596 1244 1165 1000 712 650 780 794 746 664 806 992 940 986 1044 939 836 1014 1004 961 876 426 366 357 297 438
4814 5071 5035 4793 4527 4569 4350 4368 4272 4083 3770 3500 3226 2802 2288 2016 1743 1252 1263 1164 829 799 798 940 967 846 836 918 910 1082 960 732 643 842 820 583 473 433 446 441 422 548
4917 4962 4945 4806 4405 4373 4319 4136 3952 3948 3779 3538 3177 2770 2412 2215 1848 1313 1300 1179 652 806 920 858 462 662 794 860 946 921 865 931 729 765 550 372 401 472 468 443 406 463
4976 4857 5046 4782 4484 4226 4216 3952 3635 3797 3664 3410 3189 2828 2636 2242 1836 1363 1400 1087 545 1110 1238 746 487 862 988 715 675 775 785 760 710 718 605 467 441 533 511 512 475 483
5156 4800 4890 4940 4532 4213 4068 3868 3531 3675 3564 3364 3215 2880 2629 2159 1762 1530 1411 950 852 1375 1154 620 512 943 1075 790 550 498 783 716 724 622 436 467 490 549 532 562 566 567
5298 5030 4822 4757 4757 4372 4106 3906 3420 3020 3162 3368 3113 2863 2619 2228 1810 1712 1274 1160 1123 1212 881 858 1204 1317 1023 888 504 563 768 763 521 502 464 462 454 422 463 460 441 500
5436 5430 5014 4882 4773 4590 4319 4100 3521 3035 3238 3466 3176 2855 2670 2364 2070 1732 1428 1506 1548 1106 859 1232 1374 1196 966 908 656 640 692 670 615 580 458 534 444 387 429 325 231 360
5756 5475 5139 5000 4766 4637 4448 4160 3840 3534 3475 3482 3280 2961 2612 2346 1879 1444 1424 1346 1177 875 703 1166 1265 818 629 730 414 552 586 576 844 710 527 441 471 508 374 131 462 388
5557 5020 4429 4446 4269 4290 4220 3616 3794 3438 3296 3365 3294 2999 2694 2309 1928 1586 1476 1314 719 607 789 1027 907 622 627 491 615 802 904 723 579 732 556 515 676 605 516 446 536 557
5510 5030 4757 4736 4490 4074 4096 3844 3249 3408 3380 3317 2990 3034 2828 2632 2268 1786 1100 962 964 902 878 672 207 302 571 442 575 530 576 469 634 972 659 521 692 806 755 592 446 646
5296 4809 4717 4622 4318 4148 4012 4054 3798 3438 3575 3511 3075 2818 2656 2346 1964 1846 1716 1605 1522 1322 984 642 480 502 380 293 243 156 565 714 330 660 496 683 661 623 715 637 474 712
5173 4589 4386 4542 4329 4111 4187 3913 3556 3791 3847 3474 3234 2986 2669 2030 2083 2097 2028 1883 1726 1553 1299 1033 626 523 451 475 71 127 168 112 195 176 609 588 392 519 755 813 998 878
4918 3960 4378 4230 4294 4189 3980 3668 3415 3224 3306 2985 2822 2904 2938 2256 2053 2005 1894 1798 1700 1630 1300 1198 862 1088 776 471 302 208 188 284 274 102 225 201 390 521 791 1022 1136 1151
4128 3841 4498 4199 3861 3952 3822 3545 3419 3401 3171 2946 2610 2704 2868 2606 2050 1980 1778 1598 1482 1400 1326 1132 899 1017 796 473 406 364 300 286 247 63 249 370 520 562 929 1311 1266 1673
4348 4078 3548 4166 3850 3636 3548 3332 3200 3312 3146 3030 2805 2568 2392 1953 1949 1854 1746 1609 1493 1408 1356 1408 1092 723 601 417 572 374 280 252 269 396 552 404 585 730 779 1264 1532 1909
4297 3987 3684 3530 3696 3362 3304 3010 2964 2849 2804 2752 2434 2230 2060 1716 1840 1814 1702 1639 1652 1666 1524 1165 1075 795 715 589 465 333 282 296 340 276 709 532 667 931 1061 1361 1252 2104
4492 4194 3734 3384 3609 3488 3016 2454 2642 2519 2372 2356 2112 1828 1633 1616 1616 1650 1588 1600 1585 1519 1376 1243 1151 902 660 483 367 322 327 430 653 790 913 625 654 846 1308 1229 1583 1307
4616 4077 3546 3184 3446 3151 2840 2607 2434 2410 2089 1910 1723 1572 1541 1541 1542 1561 1490 1325 1229 1073 976 866 751 614 605 554 420 357 341 482 813 749 676 591 851 1832 1576 1340 1156 867
3964 3665 3469 3165 3017 2977 2823 2580 2301 2038 1676 1508 1516 1503 1452 1382 1325 1265 1305 1170 860 690 645 637 608 595 629 648 534 403 312 614 728 818 599 566 1574 1370 1307 1601 1091 968
Wind_Speed
15 15 15 14 13 11 11 13 14 16 17 18 20 21 22 24 25 26 28 28 27 27 29 29 30 32 33 35 34 33 31 32 29 30 29 29 29 nan nan nan nan nan
16 16 16 15 13 13 12 13 15 17 19 20 21 23 25 27 29 29 30 28 29 29 31 32 33 34 36 37 38 36 35 33 31 30 29 30 30 nan nan nan nan nan
17 17 17 16 14 14 14 15 16 18 20 22 23 24 26 27 30 30 30 29 29 30 32 34 36 37 37 38 39 39 37 34 31 30 30 29 28 28 27 nan 25 25
18 17 16 15 14 15 15 16 17 19 20 22 24 24 25 27 29 31 29 29 28 30 33 34 36 38 36 35 38 40 39 35 32 28 27 26 24 22 24 25 24 23
18 17 16 15 14 15 17 17 19 21 22 24 26 26 27 29 31 31 30 29 28 32 34 35 36 39 38 36 38 39 38 36 32 29 26 25 24 24 23 25 25 23
16 15 15 15 15 17 17 19 21 23 25 27 28 29 30 33 32 32 32 32 31 33 35 35 37 40 40 38 38 39 37 33 31 29 27 25 25 26 26 26 25 24
15 15 16 16 18 19 20 21 22 23 26 28 30 31 33 34 33 33 35 35 34 33 35 35 36 39 39 37 36 39 37 32 29 30 28 27 25 24 25 26 26 24
16 17 18 18 19 20 21 23 24 25 28 31 33 34 36 37 36 35 36 37 34 34 35 37 38 39 37 33 33 37 37 32 29 30 31 29 28 26 24 25 26 25
17 18 19 20 21 21 23 25 26 27 30 32 33 35 37 38 38 36 36 37 36 37 39 39 39 39 35 30 29 34 36 35 33 34 34 32 30 26 24 26 27 26
18 18 20 21 21 22 24 25 26 27 29 32 35 36 39 38 37 36 36 38 40 42 42 40 39 38 34 29 29 34 37 38 38 37 36 35 31 26 25 26 27 26
19 20 21 22 22 22 25 26 26 27 28 33 37 38 39 39 36 35 36 39 40 41 41 39 35 32 29 25 27 34 37 39 40 40 38 36 32 28 26 27 27 26
20 20 21 22 23 23 25 26 26 26 27 33 39 40 41 41 40 37 36 38 38 39 39 38 34 29 26 26 31 34 37 38 40 40 38 36 34 30 28 28 28 27
19 20 20 21 22 22 23 24 26 26 28 34 38 41 43 43 42 41 38 38 38 38 40 39 36 32 31 34 37 37 37 37 38 39 37 36 35 31 29 28 28 28
19 20 21 22 22 23 24 26 26 26 30 34 38 42 44 45 45 44 41 40 38 38 39 37 34 32 32 35 36 37 37 36 36 36 35 34 33 30 28 27 27 28
20 21 20 21 22 23 24 25 26 27 30 34 37 40 41 44 44 44 43 42 40 38 38 37 35 33 32 31 33 35 35 34 35 35 33 32 32 29 29 28 27 27
21 21 22 22 23 24 25 26 26 29 31 34 37 40 41 42 43 44 43 43 42 40 38 38 37 34 33 36 35 35 35 33 35 35 31 31 31 29 28 28 29 30
23 23 24 25 26 26 28 28 29 30 33 35 37 39 42 42 42 43 41 41 42 41 40 39 38 35 40 40 39 37 36 34 35 36 32 30 30 29 29 29 30 31
24 24 26 28 29 29 30 32 31 32 33 38 40 42 44 44 45 44 41 40 40 41 40 38 37 37 43 43 40 38 36 35 36 35 32 29 28 29 31 31 30 29
26 26 27 29 30 32 34 34 33 34 37 40 43 44 46 48 48 46 43 41 40 39 38 38 34 39 42 42 nan 38 38 37 36 33 32 30 27 29 31 31 31 29
28 29 30 31 33 36 38 38 36 37 39 41 41 44 47 49 48 46 44 41 39 37 36 37 34 43 42 42 39 40 41 39 35 31 29 28 27 29 30 31 31 28
32 33 35 36 37 38 39 40 40 41 43 43 44 47 50 48 45 43 41 40 40 39 36 37 36 44 42 41 40 41 42 41 35 nan 28 28 29 28 29 30 29 27
36 36 37 39 40 41 41 42 41 42 44 46 47 50 51 46 42 39 38 37 37 36 35 36 36 43 40 40 42 41 41 37 32 29 27 29 31 30 28 31 27 30
38 38 39 41 43 44 45 46 45 45 45 47 50 51 51 46 40 38 36 36 36 36 33 33 33 37 39 40 40 37 34 30 28 27 28 30 32 31 30 33 31 35
40 41 42 43 46 47 47 49 50 49 48 52 53 53 49 43 40 37 35 34 37 36 33 33 31 38 41 39 36 33 30 25 25 26 28 30 31 31 36 35 36 42
43 43 44 45 48 48 50 53 53 51 50 53 54 52 46 40 38 36 34 34 36 35 36 34 31 35 39 33 30 29 28 24 25 27 29 31 34 36 35 34 38 42
45 45 46 46 48 50 53 53 53 53 54 57 55 51 44 40 39 37 36 36 37 35 36 34 31 30 35 31 28 31 33 29 27 27 29 32 36 37 34 38 37 37
Wind_Direction
309 307 310 310 308 303 304 316 322 327 327 328 329 329 330 328 330 327 327 326 328 325 325 326 326 326 324 322 320 317 311 309 307 304 304 299 293 nan nan nan nan nan
311 309 304 305 301 299 305 318 323 323 323 325 326 326 328 329 329 327 325 326 325 327 326 329 328 326 324 323 322 319 316 312 312 312 311 308 298 nan nan nan nan nan
305 307 310 312 308 313 322 323 323 322 321 323 325 325 327 328 327 326 323 323 322 325 327 329 329 326 325 324 322 319 317 315 314 317 317 313 306 295 284 nan 285 287
301 305 308 310 308 311 316 321 322 319 321 321 324 327 330 328 328 327 325 324 323 325 327 328 327 324 323 323 319 315 315 312 309 313 314 311 306 298 292 290 292 285
300 303 304 303 305 309 314 320 324 320 323 322 324 328 329 331 331 329 327 327 329 331 329 328 326 324 325 323 319 315 314 309 306 308 311 309 304 301 298 299 297 291
298 300 300 303 307 313 318 320 321 323 324 325 326 327 331 334 333 330 327 329 333 333 330 329 327 324 323 324 322 321 320 311 306 311 311 306 304 304 303 303 301 296
303 304 310 309 316 318 320 319 320 324 323 324 325 330 332 335 333 330 327 329 333 330 327 326 327 324 321 322 325 325 324 315 304 305 307 302 300 300 304 307 305 300
310 310 312 312 320 321 322 319 320 323 323 324 330 334 335 336 335 331 326 327 330 328 325 326 328 326 320 318 325 327 325 316 303 297 299 299 300 306 310 310 307 302
313 314 314 319 324 320 323 320 319 324 325 329 333 337 338 336 334 332 325 325 328 327 326 325 325 323 314 307 320 326 321 314 305 298 298 301 304 308 313 315 313 307
316 314 319 321 323 318 321 320 319 326 331 335 337 338 340 338 335 331 327 326 328 326 326 325 325 325 318 304 308 319 316 309 304 299 301 305 305 304 308 314 314 310
318 317 319 322 322 319 323 322 326 335 339 340 338 341 342 340 335 330 326 326 326 323 323 326 326 330 335 325 311 308 306 302 300 298 301 306 307 305 303 308 313 314
317 320 324 326 328 327 328 328 331 340 342 337 338 341 342 342 338 333 328 326 325 324 323 324 321 319 326 330 325 314 302 299 299 299 302 305 308 310 308 309 314 313
322 325 326 329 330 329 327 330 336 343 340 334 336 340 339 339 339 336 329 325 326 325 324 325 322 313 303 305 313 315 305 300 300 301 303 303 306 311 311 312 314 311
322 323 326 325 326 326 327 329 335 338 334 330 334 338 337 338 337 336 329 325 325 324 323 323 326 321 309 301 305 308 305 303 298 298 303 303 304 310 311 309 309 308
316 319 323 325 328 330 330 331 335 336 332 331 334 335 332 334 334 333 328 324 321 320 319 316 316 319 316 308 306 306 305 306 300 295 299 303 304 308 308 306 304 302
319 327 329 332 332 333 331 337 335 334 332 333 333 332 328 328 329 329 326 320 317 316 315 310 310 312 314 314 308 305 307 302 295 294 300 301 300 300 300 302 302 301
317 325 330 329 330 330 332 334 338 333 331 334 335 329 325 323 324 323 322 315 314 313 313 309 308 310 312 312 309 308 305 302 295 294 297 296 297 297 297 299 300 301
315 325 327 326 328 329 326 326 328 335 332 325 327 327 323 322 320 319 317 312 309 311 312 308 308 307 308 308 307 307 302 298 295 292 293 290 295 297 296 299 299 298
314 322 324 323 324 323 321 320 327 323 319 322 324 324 324 320 318 316 314 309 308 312 311 308 307 300 303 304 nan 309 304 297 294 293 293 297 297 295 298 298 296 295
312 316 317 318 317 317 318 320 324 321 316 317 321 326 324 322 319 315 309 306 307 309 308 305 305 301 305 308 310 306 300 298 294 297 298 298 297 296 297 298 291 292
311 311 312 315 316 315 316 319 321 316 314 316 323 324 320 319 319 312 305 305 307 308 308 306 301 304 308 310 309 305 302 299 298 nan 298 297 295 295 295 285 283 293
310 311 311 311 312 312 313 317 317 315 315 315 316 318 317 316 312 304 302 304 306 309 308 304 295 307 311 313 309 307 307 297 301 303 300 297 295 295 293 288 292 292
307 308 308 309 309 311 311 313 313 313 312 310 312 315 316 314 308 302 300 304 302 302 306 300 299 309 312 311 307 310 301 295 298 297 296 296 294 291 287 281 284 289
303 304 304 306 306 308 310 311 310 311 313 309 312 314 316 314 308 302 303 307 309 312 314 307 307 309 316 313 314 312 304 301 296 294 293 292 291 288 280 276 284 286
298 300 301 303 305 306 306 309 309 306 306 306 310 311 308 307 306 306 307 308 310 313 312 314 311 307 316 318 314 308 307 303 299 294 291 290 286 279 280 290 290 290
293 296 296 298 301 302 304 307 307 305 305 305 307 307 305 306 306 305 308 308 309 311 308 312 312 311 311 316 311 311 316 305 301 294 290 289 284 284 289 291 293 293